Weather in Olmazor

Uzbekistan     40°58′04″N   68°51′13″E
temp.,
°C
wind,
m/s
gust,
m/s
humid.,
%
clouds,
%
prec.,
mm/h
press.,
hPa
HPBL,
m
18 january, tue
tue1823:00+7e119480 0.1 102214
02:00+6ese229312 0.0 102126
05:00+6ene229282 0.0 102124
08:00+6ene229060 0.0 102015
11:00+10nne2274100 0.0 1019287
14:00+12nnw2264100 0.0 1016529
17:00+10nnw3573100 0.0 1014242
20:00+9n3684100 0.1 1012193
19 january, wed
wed1923:00+8nw1184100 0.1 101015
02:00+8wnw3590100 0.8 1010154
05:00+8ene1293100 2.5 101159
08:00+9sw8137254 0.6 1013963
11:00+8wsw9186291 0.6 10171351
14:00+9w9174881 0.0 10181542
17:00+7w575783 0.0 1022654
20:00+4nw5765100 0.0 1026825
20 january, thu
thu2023:00+2nne33679 0.0 1027301
02:00
05:00+1n22755 0.0 102630
08:000nne22770 0.0 102635
11:00
14:00+8ne22420 0.0 1022666
17:00+7nne22420 0.0 102037
20:00+4nne33510 0.0 101942
21 january, fri
fri2123:00+3ne22520 0.0 101620
02:00+3ene22470 0.0 101411
05:00+2ne22450 0.0 101110
08:00+1nw22400 0.0 101010
11:00+6w22260 0.0 1011293
14:00+9ne10255 0.0 1009475
17:00+8ne22296 0.0 100918
20:00+5ne2237100 0.0 101113
22 january, sat
sat2223:00+5ese2245100 0.0 101310
02:00+5sse2247100 0.0 101510
05:00+4sse3650100 0.0 1017107
08:00+4ssw3561100 0.0 101986
11:00+6wnw5756100 0.0 1022558
14:00+7wnw4555100 0.0 1023864
17:00+3nnw4487100 0.2 1025486
20:00+2nnw3398100 1.0 1026190